EUTE HOT BIRD 13E (HB 7A

Last updated on Fri Jul 19 2019 04:11:53 GMT+0000 (Coordinated Universal Time)

1 28946U 06007B 19199.10612194 .00000077 00000-0 00000+0 0 9998 2 28946 0.0445 159.8169 0006494 337.3413 209.6611 1.00270222 48979
UTC large
Height (km)
Speed (km/s)
/
Latitude / Longitude
Inclination (degrees)
Orbital Period (minutes)
Azimuth
Elevation
Range (km)
Doppler Factor

Next 0 passes for location: London (51.5072 / 0.1276)

Sorry there are no passes over London.